Location: Vigo di Fassa
(46.4167°N, 11.6667°E)
Time: 15:56:15
(UTC+00:00)

SJ 16-02 - Pass Details

Date: 03 March 2021
Orbit: 605 x 617 km, 75.0° (Epoch: 18 April)

Event Time Altitude Azimuth Distance (km) Brightness Sun altitude
Rises 17:56:37 0° 357° (N) 2,883 4.9 -10.1°
Reaches altitude 10° 18:01:18 10° 42° (NE) 1,976 3.6 -10.9°
Maximum altitude 18:01:47 10° 48° (NE) 1,966 3.5 -11.0°
Drops below altitude 10° 18:02:16 10° 55° (NE) 1,975 3.5 -11.1°
Enters shadow 18:02:24 10° 56° (ENE) 1,981 3.5 -11.1°
